• Processing (Info)

  • MPEC 2014-V67 : TWO NEW TNOS

    The following Minor Planet Electronic Circular may be linked-to from your own Web pages, but must not otherwise be redistributed electronically.

    A form allowing access to any MPEC is at the bottom of this page.


    Read MPEC 2014-V66 Read MPEC 2014-V68


    M.P.E.C. 2014-V67                                Issued 2014 Nov. 14, 21:33 UT
    
         The Minor Planet Electronic Circulars contain information on unusual
             minor planets and routine data on comets.  They are published
       on behalf of Commission 20 of the International Astronomical Union by the
              Minor Planet Center, Smithsonian Astrophysical Observatory,
                              Cambridge, MA 02138, U.S.A.
    
                 Prepared using the Tamkin Foundation Computer Network
    
                                  MPC@CFA.HARVARD.EDU
                URL https://www.minorplanetcenter.net/    ISSN 1523-6714
    
                                     TWO NEW TNOS
    
    Observations:
         K11Uf2N*~C2011 10 24.42047 01 41 06.768+13 42 09.86         24.4 rLEV067568
         K11Uf2N ~C2011 10 24.46320 01 41 06.555+13 42 08.68         24.5 rLEV067568
         K11Uf2N ~C2011 10 24.50589 01 41 06.349+13 42 07.25         24.6 rLEV067568
         K11Uf2N ~C2011 11 24.22382 01 38 51.498+13 26 04.22               LEV067568
         K11Uf2N ~C2011 11 26.44094 01 38 43.326+13 25 00.76         24.4 rLEV067568
         K11Uf2N ~C2012 01 27.28388 01 37 38.830+13 09 31.25         24.6 rLEV067568
         K11Uf2N ~C2012 08 17.58572 01 50 51.959+14 09 06.34         24.2 rLEV067568
         K11Uf2N ~C2012 08 24.54350 01 50 39.471+14 07 48.79         24.6 rLEV067568
         K11Uf2N ~C2012 08 24.59051 01 50 39.366+14 07 48.16         24.2 rLEV067568
         K11Uf2N ~C2012 10 21.31891 01 46 57.637+13 44 32.24         24.4 rLEV067568
         K11Uf2N ~C2012 10 21.34463 01 46 57.516+13 44 31.40         24.3 rLEV067568
         K11Uf2N ~C2012 10 21.37029 01 46 57.377+13 44 30.62         24.7 rLEV067568
         K11Uf2N ~C2013 02 06.29015 01 43 32.022+13 11 34.55         24.8 rLEV067568
         K11Uf2O ~C2011 09 05.58883 01 45 48.004+15 23 31.13         23.8 rLEV067568
         K11Uf2O ~C2011 10 25.33804 01 41 43.800+15 09 28.35         23.5 rLEV067568
         K11Uf2O ~C2011 10 25.38684 01 41 43.524+15 09 27.14         23.3 rLEV067568
         K11Uf2O ~C2011 10 25.43648 01 41 43.250+15 09 25.97         23.5 rLEV067568
         K11Uf2O ~C2011 10 25.44205 01 41 43.221+15 09 25.87         23.4 rLEV067568
         K11Uf2O ~C2011 10 25.44723 01 41 43.187+15 09 25.69         23.5 rLEV067568
         K11Uf2O ~C2011 10 25.45234 01 41 43.152+15 09 25.73         23.3 rLEV067568
         K11Uf2O ~C2011 10 25.45781 01 41 43.125+15 09 25.47         23.4 rLEV067568
         K11Uf2O*~C2011 10 26.28698 01 41 38.589+15 09 05.98         23.4 rLEV067568
         K11Uf2O ~C2011 10 26.33962 01 41 38.293+15 09 04.74         23.4 rLEV067568
         K11Uf2O ~C2011 10 26.38266 01 41 38.053+15 09 03.78         23.6 rLEV067568
         K11Uf2O ~C2011 10 26.39884 01 41 37.969+15 09 03.38               LEV067568
         K11Uf2O ~C2011 10 26.40555 01 41 37.929+15 09 03.29         23.4 rLEV067568
         K11Uf2O ~C2011 11 24.23661 01 39 11.954+14 57 52.42         23.7 rLEV067568
         K11Uf2O ~C2011 11 26.45630 01 39 02.382+14 57 05.58         23.6 rLEV067568
         K11Uf2O ~C2012 01 25.29229 01 37 30.468+14 49 11.90         24.3 rLEV067568
         K11Uf2O ~C2012 01 26.27710 01 37 32.019+14 49 20.40         24.0 rLEV067568
         K11Uf2O ~C2012 08 17.58141 01 50 57.149+16 33 14.57         23.6 rLEV067568
         K11Uf2O ~C2012 08 17.59430 01 50 57.136+16 33 14.75         23.8 rLEV067568
         K11Uf2O ~C2012 08 17.60362 01 50 57.109+16 33 14.78         23.5 rLEV067568
         K11Uf2O ~C2012 08 22.44017 01 50 46.685+16 33 30.49         23.6 rLEV067568
         K11Uf2O ~C2012 08 24.53923 01 50 41.473+16 33 33.31         23.7 rLEV067568
         K11Uf2O ~C2012 10 17.38671 01 46 43.777+16 22 41.64         23.4 rLEV067568
         K11Uf2O ~C2012 10 20.48174 01 46 26.646+16 21 33.01         23.4 rLEV067568
         K11Uf2O ~C2013 01 14.35013 01 41 32.955+15 57 27.33         23.7 rLEV067568
         K11Uf2O ~C2013 02 03.27546 01 42 00.499+15 59 31.74         23.8 rLEV067568
    
    Observer details:
    568 Mauna Kea.  Observers M. Alexandersen, J. Kavelaars, B. Gladman.
        Measurers M. Alexandersen, J. Kavelaars, J.-M. Petit, S. Gwyn.  3.5-m
        Canada-France-Hawaii Telescope + CCD.
    
    Orbital elements:
    2011 UN412
    Epoch 2014 Dec. 9.0 TT = JDT 2457000.5                  MPC
    M 215.16365              (2000.0)            P               Q
    n   0.00405434     Peri.  324.28305     -0.97819653     -0.01934138
    a  38.9513523      Node   216.34147     +0.04391079     -0.99240609
    e   0.0590365      Incl.   20.42231     -0.20298620     -0.12147458
    P 243              H    8.5           G   0.15           U   5
    Residuals in seconds of arc
    111024 568  0.0   0.0     120127 568  0.0   0.1-    121021 568  0.2+  0.0
    111024 568  0.0   0.1+    120817 568  0.2-  0.1+    121021 568  0.0   0.0
    111024 568  0.0   0.1+    120824 568  0.0   0.0     130206 568  0.0   0.1-
    111124 568  0.0   0.1-    120824 568  0.0   0.0
    111126 568  0.0   0.1-    121021 568  0.1+  0.0
    
    2011 UO412
    Epoch 2014 Dec. 9.0 TT = JDT 2457000.5                  MPC
    M  86.22640              (2000.0)            P               Q
    n   0.00420334     Peri.  273.04314     +0.36813716     +0.91440037
    a  38.0253466      Node    21.14754     -0.55278317     +0.36085562
    e   0.1265911      Incl.   27.81921     -0.74760002     +0.18345350
    P 234              H    7.9           G   0.15           U   4
    Residuals in seconds of arc
    110905 568  0.1+  0.1+    111026 568  0.1-  0.0     120817 568  0.1+  0.0
    111025 568  0.0   0.0     111026 568  0.1-  0.1+    120817 568  0.0   0.0
    111025 568  0.0   0.0     111026 568  0.0   0.0     120822 568  0.0   0.1-
    111025 568  0.0   0.0     111026 568  0.0   0.1+    120824 568  0.0   0.0
    111025 568  0.0   0.0     111124 568  0.1+  0.1-    121017 568  0.0   0.1-
    111025 568  0.0   0.1-    111126 568  0.3+  0.1-    121020 568  0.2-  0.0
    111025 568  0.1-  0.1+    120125 568  0.1-  0.1+    130114 568  0.0   0.1+
    111025 568  0.1-  0.0     120126 568  0.1-  0.0     130203 568  0.0   0.1+
    111026 568  0.0   0.0     120817 568  0.0   0.1-
    
    Ephemeris:
    2011 UN412               a,e,i = 38.95, 0.06, 20                 q = 36.652
    Date    TT    R. A. (2000) Decl.     Delta      r     Elong.  Phase     V
    2014 10 15    01 58 50.1 +13 48 43  39.8992 40.8779   168.8     0.3    24.6
    ...
    2014 10 30    01 57 38.0 +13 41 01  39.8863 40.8766   175.6     0.1    24.6
    ...
    2014 11 07    01 57 00.0 +13 36 53  39.9074 40.8759   167.6     0.3    24.6
    ...
    2014 11 13    01 56 32.4 +13 33 50  39.9358 40.8754   161.5     0.4    24.7
    2014 11 14    01 56 28.0 +13 33 20  39.9416 40.8753   160.5     0.5    24.7
    2014 11 15    01 56 23.5 +13 32 50  39.9476 40.8753   159.4     0.5    24.7
    ...
    2014 11 21    01 55 57.6 +13 29 53  39.9898 40.8747   153.3     0.6    24.7
    ...
    2014 11 29    01 55 25.9 +13 26 11  40.0615 40.8741   145.1     0.8    24.7
    ...
    2014 12 14    01 54 37.4 +13 20 07  40.2379 40.8728   129.6     1.1    24.7
    
    2011 UO412               a,e,i = 38.03, 0.13, 28                 q = 33.212
    Date    TT    R. A. (2000) Decl.     Delta      r     Elong.  Phase     V
    2014 10 15    01 55 43.3 +18 42 00  37.3273 38.2971   166.3     0.4    23.8
    ...
    2014 10 30    01 54 19.9 +18 36 37  37.3167 38.3023   172.8     0.2    23.7
    ...
    2014 11 07    01 53 36.0 +18 33 29  37.3389 38.3051   167.0     0.3    23.8
    ...
    2014 11 13    01 53 04.2 +18 31 05  37.3681 38.3072   161.4     0.5    23.8
    2014 11 14    01 52 59.0 +18 30 41  37.3740 38.3076   160.4     0.5    23.8
    2014 11 15    01 52 53.9 +18 30 17  37.3801 38.3079   159.4     0.5    23.8
    ...
    2014 11 21    01 52 24.1 +18 27 54  37.4232 38.3100   153.5     0.7    23.8
    ...
    2014 11 29    01 51 47.4 +18 24 49  37.4960 38.3128   145.5     0.8    23.8
    ...
    2014 12 14    01 50 51.0 +18 19 40  37.6748 38.3181   130.2     1.1    23.9
    
         These inner classical Kuiper Belt objects were detected in a
    characterised survey.  Characterisation data and other information will be
    available from the discoverers after acceptance of a journal paper detailing
    the survey.  Dynamical classifications are based on a 10 Myr integration of
    the nominal orbit as well as the two extremal semi-major axis orbits compatible
    with the astrometry.
    
    Gareth V. Williams           (C) Copyright 2014 MPC           M.P.E.C. 2014-V67
    

    Read MPEC 2014-V66 Read MPEC 2014-V68


    MPEC number:

    Enter an MPEC number in one of the following forms:

    • 1997-B01 (the full form)
    • J97B01 (the packed version of the full form)
    • B01 (the abbreviated form)